Weather History for Abilene, TX

Change the Weather History Date:

Monday, October 11, 2010

  Actual Average Record
Temperature  
Mean Temperature 70 °F 67 °F  
Max Temperature 82 °F 79 °F 97 °F (1979)
Min Temperature 58 °F 56 °F 40 °F (1946)
Degree Days  
Heating Degree Days 0 2  
Month to date heating degree days 8 18  
Since 1 July heating degree days 10 29  
Cooling Degree Days 5 4  
Month to date cooling degree days 52 60  
Year to date cooling degree days 2570 2331  
Growing Degree Days 20 (Base 50)    
Moisture  
Dew Point 53 °F    
Average Humidity 62    
Maximum Humidity 93    
Minimum Humidity 31    
Precipitation  
Precipitation 0.00 in 0.10 in 1.55 in (2007)
Month to date precipitation 0.00 1.00  
Year to date precipitation 24.92 20.20  
Sea Level Pressure  
Sea Level Pressure 29.89 in    
Wind  
Wind Speed 7 mph (NW)    
Max Wind Speed 15 mph    
Max Gust Speed 22 mph    
Visibility 9 miles    
Events      
T = Trace of Precipitation, MM = Missing Value Source: NWS Daily Summary

Daily Weather History Graph

Daily Weather History Graph

Search for Another Location

Airport:

Trip Planner

Search our weather history database for the weather conditions in past years. The results will help you decide how hot, cold, wet, or windy it might be!

Date:

Astronomy

Oct. 11, 2010 Rise Set
Actual Time 7:39 AM CDT 7:10 PM CDT
Civil Twilight 7:14 AM CDT 7:35 PM CDT
Nautical Twilight 6:46 AM CDT 8:03 PM CDT
Astronomical Twilight 6:18 AM CDT 8:32 PM CDT
Moon 11:59 AM CDT (10/11) 10:08 PM CDT (10/11)
Length of Visible Light 12h 20m
Length of Day
11h 31m
Waxing Crescent, 19% of the Moon is Illuminated
Oct 11
Waxing Crescent
Oct 14
First Quarter
Oct 22
Full
Oct 30
Last Quarter
Nov 5
New

Hourly Weather History & Observations

Time (CDT) Temp. Dew Point Humidity Pressure Visibility Wind Dir Wind Speed Gust Speed Precip Events Conditions
12:52 AM 72.0 °F 57.0 °F 59% 29.79 in 10.0 mi South 11.5 mph 23.0 mph N/A   Clear
1:52 AM 72.0 °F 57.0 °F 59% 29.80 in 10.0 mi SSW 11.5 mph - N/A   Clear
2:52 AM 69.1 °F 57.0 °F 65% 29.80 in 10.0 mi SSW 9.2 mph - N/A   Clear
3:52 AM 64.9 °F 55.9 °F 73% 29.79 in 10.0 mi South 5.8 mph - N/A   Clear
4:52 AM 60.1 °F 55.0 °F 83% 29.82 in 10.0 mi West 4.6 mph - N/A   Clear
5:52 AM 59.0 °F 55.9 °F 90% 29.84 in 10.0 mi West 6.9 mph - N/A   Clear
6:52 AM 59.0 °F 55.9 °F 90% 29.87 in 10.0 mi West 8.1 mph - N/A   Clear
7:33 AM 59.0 °F 55.4 °F 88% 29.95 in 10.0 mi WNW 8.1 mph - N/A   Mostly Cloudy
7:52 AM 59.0 °F 55.9 °F 90% 29.89 in 10.0 mi WNW 10.4 mph - N/A   Overcast
8:35 AM 59.0 °F 57.2 °F 94% 29.96 in 6.0 mi NW 11.5 mph - N/A   Overcast
8:52 AM 59.0 °F 57.0 °F 93% 29.92 in 6.0 mi NW 9.2 mph - N/A   Overcast
9:52 AM 61.0 °F 57.9 °F 90% 29.93 in 7.0 mi NNW 6.9 mph - N/A   Overcast
10:05 AM 62.6 °F 57.2 °F 82% 29.99 in 8.0 mi NNW 6.9 mph - N/A   Overcast
10:31 AM 62.6 °F 57.2 °F 82% 29.99 in 8.0 mi Calm Calm - N/A   Partly Cloudy
10:52 AM 64.9 °F 57.9 °F 78% 29.93 in 10.0 mi NW 3.5 mph - N/A   Clear
10:59 AM 66.2 °F 57.2 °F 73% 29.98 in 10.0 mi Variable 4.6 mph - N/A   Partly Cloudy
11:52 AM 72.0 °F 57.0 °F 59% 29.92 in 10.0 mi NNW 8.1 mph - N/A   Clear
12:52 PM 78.1 °F 53.1 °F 42% 29.91 in 9.0 mi North 9.2 mph - N/A   Clear
1:52 PM 80.1 °F 48.9 °F 34% 29.89 in 10.0 mi NNE 8.1 mph - N/A   Clear
2:52 PM 81.0 °F 48.9 °F 33% 29.86 in 7.0 mi North 10.4 mph - N/A   Clear
3:52 PM 82.0 °F 48.0 °F 30% 29.85 in 10.0 mi North 9.2 mph 16.1 mph N/A   Clear
4:52 PM 82.0 °F 48.0 °F 30% 29.86 in 7.0 mi North 6.9 mph - N/A   Clear
5:52 PM 81.0 °F 48.9 °F 33% 29.87 in 10.0 mi North 8.1 mph - N/A   Clear
6:52 PM 79.0 °F 46.9 °F 32% 29.88 in 10.0 mi Calm Calm - N/A   Clear
7:52 PM 73.9 °F 48.0 °F 40% 29.90 in 10.0 mi NNE 5.8 mph - N/A   Clear
8:52 PM 68.0 °F 48.9 °F 50% 29.92 in 10.0 mi East 4.6 mph - N/A   Clear
9:52 PM 64.9 °F 48.0 °F 54% 29.94 in 10.0 mi SSE 4.6 mph - N/A   Clear
10:52 PM 63.0 °F 48.0 °F 58% 29.95 in 10.0 mi SSE 6.9 mph - N/A   Clear
11:52 PM 64.0 °F 50.0 °F 60% 29.95 in 10.0 mi NNW 4.6 mph - N/A   Clear